Location: Newark
(21.8258°S, 114.1586°E)
Time: 01:29:39
(UTC+00:00)

Hubble Space Telescope - Pass Details

Date: 17 December 2019
Orbit: 536 x 540 km, 28.5° (Epoch: 23 January)

Event Time Altitude Azimuth Distance (km) Brightness Sun altitude
Rises 11:57:21 0° 248° (WSW) 2,686 6.3 -11.9°
Reaches altitude 10° 11:59:43 10° 240° (WSW) 1,794 5.0 -12.4°
Maximum altitude 12:03:39 41° 169° (S) 793 1.8 -13.1°
Enters shadow 12:06:57 14° 102° (ESE) 1,566 2.7 -13.8°
